RH
9 13 15 15 16 20 19 14 12 22 62 64 57 58 80 93 76 67 84 78 51 61 79 86 86 89 88 84 86 89 85 79 71 67 63 61 68 67 68 65 58 62 67 62 58 56 57 66 59
11 15 10 20 22 24 21 17 48 48 70 66 64 66 83 95 86 91 72 61 49 57 68 76 76 81 82 84 90 89 82 74 66 70 72 72 65 61 61 64 71 71 68 57 53 62 91 94 90
13 11 12 22 26 23 26 18 60 62 62 50 73 72 74 93 87 84 68 62 55 48 52 51 64 66 62 66 73 71 68 64 61 62 65 76 82 83 79 74 66 65 57 53 56 70 84 73 64
14 11 14 19 18 16 20 21 58 58 48 60 70 78 67 67 79 73 70 67 58 53 46 44 40 39 40 40 40 44 50 54 52 53 57 70 79 76 67 61 57 66 72 70 86 95 90 83 80
9 13 16 16 14 16 23 32 36 48 51 53 54 80 73 74 73 70 72 62 53 52 49 45 40 38 37 37 35 37 44 48 50 50 55 61 64 62 64 63 64 74 87 84 80 74 72 83 94
12 13 16 17 12 10 11 19 30 42 44 54 67 72 68 79 73 73 71 61 51 47 49 45 43 42 44 46 45 44 44 49 55 62 65 68 71 71 72 72 75 82 82 77 74 71 70 70 75
11 14 15 12 11 9 8 9 13 19 28 38 60 76 72 78 70 71 72 65 58 56 53 48 48 46 46 43 44 46 49 50 53 61 64 63 61 61 66 68 70 69 70 70 73 75 79 86 90
14 14 12 11 11 8 8 10 11 12 19 42 45 81 75 67 70 74 78 69 63 59 60 60 59 59 54 49 50 50 48 53 57 63 64 63 63 60 60 58 54 55 57 60 63 67 73 80 84
11 18 17 11 10 10 11 10 11 13 29 22 39 58 45 56 74 82 86 74 67 68 64 66 66 68 62 59 58 55 58 58 58 63 62 66 65 62 57 58 56 53 52 53 53 55 57 65 75
15 19 13 12 11 11 13 11 10 15 28 37 42 48 62 65 75 87 89 83 76 72 70 68 70 70 70 67 67 64 65 64 66 66 65 68 70 63 61 60 56 49 49 50 49 49 45 55 57
16 18 14 14 12 12 15 15 14 16 21 39 37 49 72 73 71 81 81 75 70 68 71 64 66 72 76 77 70 70 68 69 70 71 69 71 72 74 68 62 60 61 56 59 51 58 61 54 58
17 16 15 14 15 16 16 15 15 15 13 20 40 56 74 80 74 67 71 71 70 69 63 62 50 47 53 68 77 74 70 72 72 74 74 69 67 68 54 49 56 65 65 65 58 66 72 69 61
17 16 16 15 16 15 15 16 15 17 16 14 36 60 76 79 70 61 56 61 62 65 64 49 42 45 56 64 71 71 73 76 75 76 75 69 66 57 57 58 61 70 76 75 72 60 38 35 31
18 19 19 18 17 17 17 17 16 15 15 15 43 54 73 76 68 59 54 51 58 57 56 43 43 49 58 55 58 63 67 70 72 74 74 68 62 57 65 69 70 73 78 75 56 36 30 26 31
20 20 21 20 21 18 17 17 16 16 14 16 23 49 59 67 57 49 40 45 44 51 46 42 40 39 40 40 42 46 52 54 53 55 54 52 50 45 51 62 66 68 82 73 51 43 30 33 34
22 23 24 18 20 16 15 23 17 14 16 19 19 34 49 50 42 40 32 33 44 48 40 38 35 33 33 34 35 39 46 52 50 49 45 43 42 41 42 43 42 43 64 61 46 43 31 36 34
30 24 22 23 27 30 18 23 18 18 26 24 20 25 32 29 23 21 24 32 43 40 33 33 32 30 28 29 31 40 43 38 39 41 40 41 43 43 44 41 38 38 43 45 40 31 31 36 34
27 23 28 26 26 34 35 32 32 31 28 28 24 26 26 24 22 27 23 23 26 27 29 30 27 27 25 23 24 26 28 26 28 27 28 30 34 39 45 46 43 38 38 41 42 32 33 36 36
23 26 33 30 27 36 38 42 33 28 28 26 23 25 33 33 32 30 27 24 24 26 29 26 23 23 21 22 22 23 23 24 25 25 25 26 26 28 36 45 47 44 40 33 34 34 34 38 39
24 30 30 33 32 37 40 37 25 28 27 32 35 38 33 33 32 32 30 28 27 25 24 22 21 21 21 22 23 26 26 26 26 25 26 27 27 27 29 29 32 43 41 38 39 38 37 38 39
30 27 30 35 38 36 39 31 33 24 27 29 31 29 31 32 31 30 28 25 24 22 21 22 22 23 26 28 28 28 30 31 31 31 32 30 31 34 35 33 30 33 44 38 35 39 40 43 43
37 25 31 39 46 46 39 41 37 37 25 30 28 28 26 28 32 32 30 26 24 24 24 25 29 32 35 36 36 38 40 41 34 35 36 35 34 35 38 42 40 39 51 49 38 36 42 46 49
38 40 42 40 48 46 48 46 37 36 30 27 29 28 29 30 30 27 27 27 29 30 33 38 37 37 37 35 36 36 33 32 33 32 34 29 29 29 30 36 43 43 50 56 53 50 56 56 49
38 45 44 53 54 63 50 48 45 41 35 33 30 29 31 29 33 32 34 38 41 38 36 34 34 35 36 38 38 37 41 41 38 34 34 34 35 34 36 37 43 58 64 62 55 50 45 49 58
49 54 64 63 74 70 51 50 42 34 32 30 30 29 34 41 44 40 48 48 43 40 39 39 41 44 46 47 42 46 45 46 38 35 40 40 39 42 45 49 58 56 60 66 63 70 77 84 88
47 56 76 58 86 80 58 52 43 33 38 32 36 49 55 57 58 60 54 48 45 44 43 46 48 50 46 48 48 52 54 50 41 36 40 43 45 52 56 55 55 60 63 64 68 76 82 87 89
45 66 53 78 96 90 72 55 41 44 47 44 52 52 52 52 54 54 50 50 49 47 46 45 48 50 50 55 53 59 56 48 42 38 41 47 51 56 61 62 60 57 56 58 70 82 81 71 74
47 47 66 85 89 88 74 70 63 55 53 56 53 51 54 52 53 54 51 49 50 49 53 51 51 56 58 56 57 59 53 47 47 47 48 56 59 61 61 64 51 45 45 48 52 50 57 78 79
59 68 66 68 84 93 96 76 55 54 50 57 50 57 59 58 53 56 54 53 54 53 54 56 53 57 60 56 62 56 54 55 49 54 56 59 64 51 46 44 46 46 40 42 49 54 54 49 47
53 56 62 83 71 90 93 79 44 44 51 52 51 56 59 58 58 59 58 60 58 54 57 62 57 62 62 63 55 59 63 53 54 59 62 61 51 46 47 55 52 53 44 42 46 45 40 39 38
Wind_Speed
9 6 2 3 4 6 3 2 1 1 3 2 2 6 7 3 3 3 3 10 8 12 9 8 7 8 10 11 10 9 7 6 7 6 7 7 7 9 7 4 4 12 16 17 13 8 8 11 11
8 2 3 2 5 5 3 4 3 0 4 3 6 4 7 4 3 7 8 13 11 12 11 10 9 9 11 11 11 10 8 6 5 4 4 5 6 7 8 10 12 15 15 13 10 4 4 7 8
3 4 3 4 4 4 4 1 3 3 2 4 3 4 3 3 3 8 14 17 15 13 12 11 11 11 11 11 10 9 7 5 4 4 3 5 6 7 9 11 13 11 9 7 5 4 5 10 12
2 5 4 6 4 4 3 3 6 4 1 5 3 5 3 2 11 11 21 17 16 15 13 12 12 12 10 9 9 8 8 7 6 5 5 5 5 7 7 7 8 7 7 8 10 10 11 11 10
5 3 5 5 4 3 3 3 7 6 5 2 2 2 3 2 12 24 20 18 18 17 15 14 11 10 8 7 6 6 6 4 4 5 4 3 3 4 5 5 5 6 7 9 9 10 11 13 13
4 3 5 4 1 3 2 1 2 3 3 4 6 4 2 9 24 24 20 18 17 18 17 13 10 7 5 3 3 3 2 1 2 3 2 3 4 5 5 5 5 5 7 7 9 10 11 12 9
6 5 4 4 3 2 1 5 3 4 3 2 7 5 1 9 21 22 18 16 17 16 14 12 10 7 5 3 2 1 2 2 2 2 2 2 3 4 5 4 4 4 6 7 8 9 10 10 8
5 4 3 3 2 1 3 2 3 3 2 3 3 6 4 10 22 21 18 17 15 14 12 10 9 6 5 3 2 0 2 3 3 3 4 4 4 5 5 5 6 7 8 9 10 10 10 9 7
3 5 2 3 4 2 3 2 1 2 5 2 4 7 4 24 23 21 17 15 14 13 11 11 9 7 4 2 2 1 1 2 3 5 6 6 5 5 6 7 8 8 8 8 10 10 9 9 8
5 5 4 3 4 1 2 1 1 3 2 2 1 2 9 25 25 23 20 19 18 16 15 13 11 7 6 4 4 3 3 5 5 6 8 7 7 7 7 8 9 9 10 9 8 8 9 9 8
1 4 3 2 2 2 1 3 1 7 2 6 8 5 8 12 19 21 23 23 25 19 15 13 10 9 8 9 9 8 7 8 8 8 9 10 10 11 10 11 10 11 10 9 8 7 6 6 7
6 4 3 1 3 4 2 1 2 5 7 7 9 10 9 8 13 19 22 26 25 23 18 14 10 9 9 11 14 13 12 11 11 11 11 12 12 13 13 13 13 13 12 11 10 9 9 9 10
4 2 4 1 5 3 2 3 4 7 8 2 8 8 10 9 17 18 22 23 22 23 20 15 12 10 9 10 11 12 13 14 13 14 14 14 14 15 15 16 16 15 13 11 10 10 9 6 4
1 1 1 1 3 1 1 3 2 4 2 3 7 11 10 9 19 12 14 19 24 24 22 17 13 10 9 8 7 8 10 12 13 16 16 16 16 17 17 17 17 16 14 13 11 9 8 7 5
3 5 6 6 5 2 2 6 6 4 4 5 7 8 9 11 13 18 18 21 21 27 22 19 13 9 7 6 7 8 9 11 13 14 15 16 17 17 17 17 17 18 16 14 12 11 10 7 6
6 6 5 6 3 4 4 8 11 2 2 8 8 8 8 7 9 16 16 17 19 24 19 15 11 8 6 6 7 9 10 11 13 14 15 17 18 17 17 18 18 17 18 16 15 13 11 9 8
8 1 2 7 5 5 2 8 9 5 7 10 6 7 5 4 2 6 12 13 17 17 15 15 11 8 5 6 8 10 12 13 13 15 18 20 21 20 21 21 20 19 19 20 19 17 15 13 11
2 2 2 3 5 7 4 8 9 7 7 8 6 6 7 5 2 3 6 11 13 14 15 13 10 8 5 5 9 12 14 15 15 17 20 21 23 25 26 26 26 24 24 25 23 22 20 19 15
0 1 2 3 1 5 4 6 9 9 7 7 4 5 7 5 4 5 7 9 11 12 14 13 10 9 6 8 11 14 16 17 17 19 22 24 26 28 29 32 32 30 30 31 29 27 24 22 18
3 2 4 5 3 0 6 7 6 7 5 5 5 6 6 5 4 8 12 13 15 15 13 12 10 9 11 12 14 13 16 20 23 26 28 29 29 33 37 38 39 38 37 36 34 32 30 28 23
4 2 2 5 6 1 5 4 7 5 5 7 7 4 3 5 6 3 5 11 11 12 11 10 11 12 12 14 17 19 22 24 27 30 30 30 36 37 35 38 44 45 44 42 41 39 36 30 26
4 2 2 4 2 1 4 2 6 6 4 5 4 1 2 2 3 4 7 8 9 6 7 9 11 11 11 12 14 16 18 22 28 31 33 32 30 32 31 30 34 44 48 45 47 43 41 35 24
6 4 2 1 2 3 9 4 6 6 5 2 2 4 2 5 6 4 6 4 3 2 3 9 13 14 17 20 21 21 22 25 29 33 32 30 32 30 30 31 29 33 39 43 41 34 27 25 13
6 3 5 4 2 3 3 3 5 3 4 4 2 1 5 3 8 7 7 9 13 15 16 17 17 18 20 21 21 21 25 30 34 36 36 35 34 29 27 26 24 20 18 18 14 14 15 13 11
9 6 3 5 5 4 3 1 6 6 4 2 3 3 6 8 6 4 8 13 18 20 18 16 16 20 21 18 19 22 27 32 36 38 38 36 33 25 21 15 1 11 16 17 17 15 13 10 13
3 4 4 2 1 5 5 3 2 4 6 5 7 6 7 8 6 7 10 13 15 16 18 18 16 23 24 22 22 22 27 31 35 37 37 33 22 10 1 7 12 13 10 7 8 9 10 14 15
2 4 2 5 2 3 3 4 5 4 8 9 8 8 7 8 8 7 6 9 15 19 21 19 16 20 22 19 20 27 33 37 38 36 32 24 11 9 8 7 5 3 2 5 9 14 16 13 8
6 4 4 4 2 4 5 5 4 6 9 7 5 6 7 7 8 7 8 8 14 16 16 17 19 20 21 18 22 29 34 35 34 34 24 13 9 7 2 2 4 7 8 8 10 8 8 10 13
4 3 5 3 3 3 3 5 5 5 2 7 2 5 6 8 8 7 13 11 12 15 16 17 20 20 20 18 25 31 32 31 30 18 10 10 3 2 4 8 11 15 14 14 10 9 10 11 12
2 3 4 4 4 2 3 6 2 5 4 6 3 5 6 6 8 9 16 16 16 23 23 20 21 21 16 22 28 29 26 26 16 3 5 2 5 6 9 11 10 13 16 14 12 12 12 13 14
Wind_Direction
339 349 81 41 61 63 29 9 239 344 51 344 17 81 105 61 71 160 94 162 148 148 141 141 126 107 106 121 139 139 128 116 113 127 140 154 157 162 186 238 282 311 322 323 323 317 294 269 269
341 3 59 73 85 75 312 299 76 71 109 111 57 45 44 58 86 125 102 141 138 139 143 142 137 130 115 118 130 142 125 132 127 147 152 167 184 204 240 276 303 310 312 320 331 345 290 277 261
352 29 78 86 106 126 134 292 85 60 67 16 88 72 107 105 96 139 150 148 141 137 141 135 135 133 128 128 135 137 148 158 165 173 189 204 211 237 267 293 302 310 322 326 327 336 304 292 271
77 24 38 75 65 8 115 167 119 113 42 52 86 61 53 130 160 162 155 149 144 138 134 136 138 129 130 133 138 152 165 175 182 201 210 210 221 250 273 291 305 320 332 336 331 317 305 305 302
52 60 59 66 20 349 23 191 167 152 133 63 157 130 83 60 158 152 155 154 147 140 142 139 136 133 140 149 150 163 171 165 186 201 210 218 235 271 296 325 346 357 344 340 331 326 318 300 298
46 90 64 103 174 321 30 283 157 75 87 146 77 103 113 150 150 162 160 156 152 146 147 143 134 137 129 136 141 160 151 186 285 337 334 296 296 312 333 350 1 360 348 343 336 343 344 348 346
109 80 143 135 134 72 323 322 71 105 100 76 151 104 187 163 166 165 165 160 163 152 146 142 138 142 148 159 171 190 219 239 268 286 291 285 290 304 311 326 328 327 323 328 339 348 354 358 12
97 90 83 11 79 58 317 23 130 92 73 134 157 165 182 199 175 172 169 167 170 162 162 154 160 154 165 167 133 204 282 265 264 262 263 267 263 269 284 297 303 305 310 320 327 334 336 337 341
111 64 96 154 127 243 335 111 353 94 112 169 197 158 216 167 176 171 171 176 181 181 175 180 188 180 176 176 153 159 221 274 269 271 266 270 275 276 295 294 305 307 306 306 307 309 314 308 308
78 91 167 185 172 126 31 58 133 86 44 359 329 77 140 158 171 169 182 187 196 199 197 200 203 203 200 217 208 210 225 242 265 268 269 265 274 272 289 290 296 304 305 302 299 305 303 294 296
110 140 180 93 119 121 333 320 181 128 206 213 205 158 147 159 170 182 191 196 206 209 213 210 211 218 225 226 230 230 235 242 258 263 268 273 279 280 288 291 289 292 301 302 302 302 314 321 316
76 80 129 188 185 134 202 285 288 192 227 207 214 165 161 164 179 188 199 209 216 215 218 211 210 228 236 235 236 241 241 246 257 258 264 271 275 277 288 290 288 286 288 291 297 304 310 305 299
68 131 172 195 166 209 165 239 252 253 259 260 147 162 181 184 196 197 209 212 214 212 207 205 210 220 220 234 235 238 249 256 259 257 263 268 269 277 283 287 287 288 291 292 295 299 304 309 323
65 143 304 359 195 172 209 282 5 290 6 203 169 186 198 192 206 196 199 212 216 215 207 203 208 214 222 238 253 258 259 262 264 263 262 265 270 276 276 279 280 280 283 287 292 298 307 311 328
50 32 7 24 343 336 188 323 238 252 7 255 220 214 204 218 216 221 223 222 218 210 204 202 200 208 221 249 263 269 272 271 271 268 268 267 269 279 279 278 277 280 274 270 274 283 289 287 302
39 48 24 328 27 13 79 275 282 297 342 289 245 226 220 225 237 246 251 236 218 203 203 200 203 210 228 254 271 269 268 274 274 269 265 265 265 269 270 271 274 277 269 261 265 264 264 268 283
8 117 341 327 59 10 48 273 275 332 320 284 277 231 215 224 283 263 246 228 213 205 207 200 208 218 243 275 283 273 270 276 272 271 274 270 264 264 262 265 268 262 256 252 254 254 253 253 262
299 354 312 253 321 359 326 276 294 292 305 299 297 217 185 197 204 307 242 216 206 204 201 199 211 218 235 278 286 284 281 286 280 286 283 280 272 265 259 257 257 255 252 252 249 248 247 251 253
146 233 302 265 288 350 317 293 315 333 37 22 28 82 92 89 13 71 116 149 166 178 184 199 215 218 237 262 280 285 287 294 295 299 296 290 281 276 265 261 257 252 245 249 250 249 250 249 248
39 33 313 295 282 162 351 323 320 3 26 40 80 80 91 94 69 77 106 129 153 167 191 211 230 239 254 265 275 287 295 299 302 303 302 296 286 281 272 267 265 257 248 245 243 240 240 241 239
331 193 235 241 328 49 337 353 356 345 40 50 42 55 72 108 113 124 148 162 175 192 208 231 253 271 292 304 305 306 309 311 314 315 313 313 306 301 294 284 270 263 254 248 244 239 234 231 228
319 150 276 264 62 216 20 238 342 334 360 53 40 10 121 164 206 215 213 219 227 247 254 276 302 322 352 3 356 350 338 330 326 320 317 315 312 311 308 300 285 273 263 254 250 245 237 230 214
248 340 275 264 132 88 352 70 293 357 359 16 236 234 274 239 217 228 249 307 16 3 47 58 59 40 19 7 2 350 339 336 338 333 327 325 322 315 309 305 296 282 272 263 253 243 240 229 211
294 34 43 47 70 44 317 97 300 323 286 316 335 341 239 299 355 22 50 75 65 61 49 34 20 7 355 349 350 356 355 350 342 332 323 321 320 313 307 304 302 290 273 248 212 155 128 101 80
23 41 359 5 10 217 284 47 231 307 356 278 209 249 355 2 346 340 48 50 48 35 21 11 2 355 350 351 354 354 352 345 338 329 320 316 317 313 314 314 263 126 116 102 102 87 84 47 29
10 92 130 192 291 278 313 209 241 8 0 24 58 41 29 26 39 54 53 59 36 18 10 355 346 349 347 342 342 342 340 339 336 331 320 311 305 293 214 157 144 122 89 64 46 8 359 329 330
330 45 155 105 12 34 275 307 300 72 15 337 21 49 14 11 12 24 50 38 15 2 355 348 335 334 336 330 333 334 336 335 329 320 306 296 271 190 148 111 68 39 293 292 322 329 336 328 332
95 136 33 11 47 306 304 296 247 21 330 359 61 29 6 359 1 354 336 333 349 343 333 337 337 328 331 324 330 329 327 326 320 312 296 260 183 158 177 340 16 32 14 11 1 339 323 285 282
3 27 55 106 117 186 288 267 205 191 313 147 146 11 1 343 311 290 286 290 306 323 331 337 338 331 325 323 327 327 329 330 324 308 283 195 190 5 40 35 13 349 355 350 333 303 300 302 302
98 124 107 111 298 226 175 266 233 125 171 153 226 318 317 299 291 286 285 284 311 334 330 332 331 328 325 328 328 329 332 333 335 348 114 83 12 36 19 6 355 343 331 325 317 312 311 306 301